AG1T-1 Weather Reports


time (UTC)temp
C
wind
direction
speed
KPH
gust
KPH
rain 1hr
cm
rain 24hr
cm
rain mn
cm
humidity
%
barometer
mb
20260502185003 19 293 1.6 6.4 0.00 0.00 0.00 36 1023.7
20260502184003 19 330 3.2 8.0 0.00 0.00 0.00 35 1023.9
20260502183003 18 349 1.6 8.0 0.00 0.00 0.00 36 1024.0
20260502182003 17 304 3.2 11.3 0.00 0.00 0.00 38 1024.2
20260502181003 17 305 3.2 12.9 0.00 0.00 0.00 41 1024.4
20260502164003 14 326 1.6 11.3 0.00 0.00 0.00 47 1024.7
20260502163003 13 330 3.2 9.7 0.00 0.00 0.00 51 1024.7
20260502162003 12 327 3.2 11.3 0.00 0.00 0.00 53 1024.7
20260502161003 12 327 3.2 11.3 0.00 0.00 0.00 50 1024.7
20260502152003 11 0 0.0 4.8 0.00 0.00 0.00 49 1024.9
20260502151003 10 0 0.0 3.2 0.00 0.00 0.00 53 1025.0
20260502123003 1 0 0.0 0.0 0.00 0.00 0.00 79 1024.6
20260502122003 2 0 0.0 0.0 0.00 0.00 0.00 79 1024.6
20260502121003 2 0 0.0 0.0 0.00 0.00 0.00 77 1024.5
20260502115003 2 0 0.0 0.0 0.00 0.00 0.00 76 1024.4
20260502114003 2 0 0.0 0.0 0.00 0.00 0.00 75 1024.4
20260502113003 2 0 0.0 0.0 0.00 0.00 0.00 75 1024.4
20260502112003 3 0 0.0 0.0 0.00 0.00 0.00 73 1024.4
20260502111003 3 0 0.0 0.0 0.00 0.00 0.00 72 1024.4
20260502110003 3 0 0.0 0.0 0.00 0.00 0.00 71 1024.4
20260502105003 3 0 0.0 0.0 0.00 0.00 0.00 71 1024.4
20260502104003 3 0 0.0 0.0 0.00 0.00 0.00 70 1024.5
20260502103003 3 0 0.0 0.0 0.00 0.00 0.00 70 1024.4
20260502102003 4 0 0.0 4.8 0.00 0.00 0.00 70 1024.4
20260502101003 4 0 0.0 3.2 0.00 0.00 0.00 68 1024.4
20260502091003 4 0 0.0 0.0 0.00 0.00 0.00 72 1024.2
20260502071003 7 0 0.0 0.0 0.00 0.00 0.00 58 1024.2
20260502070003 7 0 0.0 1.6 0.00 0.00 0.00 54 1024.2
20260502065003 8 0 0.0 3.2 0.00 0.00 0.00 53 1024.2
20260502064003 8 0 0.0 1.6 0.00 0.00 0.00 49 1024.0
20260502063003 8 136 1.6 8.0 0.00 0.00 0.00 48 1023.9
20260502062003 8 139 1.6 8.0 0.00 0.00 0.00 48 1023.8
20260502061003 9 147 1.6 8.0 0.00 0.00 0.00 49 1023.7
20260502060003 9 144 3.2 11.3 0.00 0.00 0.00 49 1023.7
20260502055003 9 164 1.6 6.4 0.00 0.00 0.00 49 1023.5
20260502054003 9 149 1.6 9.7 0.00 0.00 0.00 50 1023.6
20260502053003 10 160 1.6 6.4 0.00 0.00 0.00 50 1023.5
20260502052003 10 140 1.6 6.4 0.00 0.00 0.00 48 1023.4
20260502051003 10 142 3.2 9.7 0.00 0.00 0.00 49 1023.4
20260502050003 10 141 4.8 9.7 0.00 0.00 0.00 51 1023.4
20260502045003 9 153 4.8 9.7 0.00 0.00 0.00 55 1023.5
20260502044003 9 150 4.8 11.3 0.00 0.00 0.00 56 1023.5
20260502043003 9 172 3.2 9.7 0.00 0.00 0.00 56 1023.5
20260502042003 10 165 1.6 11.3 0.00 0.00 0.00 55 1023.4
20260502041003 11 0 0.0 4.8 0.00 0.00 0.00 52 1023.3
20260502040003 11 0 0.0 3.2 0.00 0.00 0.00 51 1023.3
20260502035003 11 158 1.6 6.4 0.00 0.00 0.00 49 1023.2
20260502034003 11 258 1.6 6.4 0.00 0.00 0.00 48 1023.0
20260502033003 12 0 0.0 0.0 0.00 0.00 0.00 48 1023.0
20260502032003 12 0 0.0 0.0 0.00 0.00 0.00 46 1022.8
20260502031003 12 0 0.0 0.0 0.00 0.00 0.00 44 1022.6
20260502030003 13 0 0.0 1.6 0.00 0.00 0.00 43 1022.4
20260502025003 14 0 0.0 0.0 0.00 0.00 0.00 37 1022.3
20260502024003 15 0 0.0 0.0 0.00 0.00 0.00 35 1022.1
20260502023003 15 0 0.0 0.0 0.00 0.00 0.00 35 1022.1
20260502022003 16 0 0.0 0.0 0.00 0.00 0.00 35 1022.1
20260502021003 16 0 0.0 1.6 0.00 0.00 0.00 33 1022.0
20260502020003 17 311 1.6 6.4 0.00 0.00 0.00 31 1022.0
20260502015003 18 311 1.6 6.4 0.00 0.00 0.00 25 1021.9
20260502014003 18 304 1.6 6.4 0.00 0.00 0.00 26 1021.8
20260502013003 19 314 1.6 8.0 0.00 0.00 0.00 24 1021.9
20260502012003 19 324 3.2 11.3 0.00 0.00 0.00 23 1021.9
20260502011003 20 320 3.2 8.0 0.00 0.00 0.00 23 1021.9
20260502010003 19 326 3.2 11.3 0.00 0.00 0.00 23 1021.9
20260502005003 19 318 4.8 16.1 0.00 0.00 0.00 25 1021.9
20260502004003 19 305 3.2 9.7 0.00 0.00 0.00 26 1021.9
20260502003003 20 316 3.2 12.9 0.00 0.00 0.00 25 1022.0
20260502002003 20 318 4.8 12.9 0.00 0.00 0.00 25 1022.0
20260502001003 19 324 4.8 12.9 0.00 0.00 0.00 25 1022.1
20260502000003 19 311 6.4 12.9 0.00 0.00 0.00 25 1022.1
20260501235003 19 314 6.4 16.1 0.00 0.00 0.00 25 1022.2
20260501234003 20 322 4.8 14.5 0.00 0.00 0.00 26 1022.2
20260501233003 20 308 4.8 14.5 0.00 0.00 0.00 26 1022.3
20260501232003 20 326 3.2 12.9 0.00 0.00 0.00 26 1022.3
20260501231003 20 320 3.2 12.9 0.00 0.00 0.00 27 1022.4
20260501230003 19 329 4.8 17.7 0.00 0.00 0.00 27 1022.4